Weather History for K2W6 - May, 2013

Change the Weather History Date:

Wednesday, May 15, 2013

  Actual Average (KNHK) Record (KNHK)
Temperature  
Mean Temperature 70 °F -  
Max Temperature 84 °F 72 °F 89 °F (1983)
Min Temperature 55 °F 55 °F 46 °F (1984)
Cooling Degree Days 4    
Growing Degree Days 20 (Base 50)    
Moisture  
Dew Point 50 °F    
Average Humidity 51    
Maximum Humidity 67    
Minimum Humidity 39    
Precipitation  
Precipitation 0.00 in - - ()
Sea Level Pressure  
Sea Level Pressure 29.90 in    
Wind  
Wind Speed 6 mph (SSW)    
Max Wind Speed 14 mph    
Max Gust Speed 21 mph    
Visibility 10 miles    
Events      
Averages and records for this station are not official NWS values.
T = Trace of Precipitation, MM = Missing Value Source: NWS Daily Summary

Daily Weather History Graph

Daily Weather History Graph

Search for Another Location

Airport or City:

Trip Planner

Search our weather history database for the weather conditions in past years. The results will help you decide how hot, cold, wet, or windy it might be!

Date:

Astronomy

May. 15, 2013 Rise Set
Actual Time 5:54 AM EDT 8:10 PM EDT
Civil Twilight 5:25 AM EDT 8:40 PM EDT
Nautical Twilight 4:48 AM EDT 9:17 PM EDT
Astronomical Twilight 4:08 AM EDT 9:57 PM EDT
Moon 10:27 AM EDT (5/15) No Moon Set
Length of Visible Light 15h 15m
Length of Day
14h 15m
Waxing Crescent, 26% of the Moon is Illuminated
May 15
Waxing Crescent
May 18
First Quarter
May 25
Full
May 31
Last Quarter
Jun 8
New

Hourly Weather History & Observations

Time (EDT) Temp. Heat Index Dew Point Humidity Pressure Visibility Wind Dir Wind Speed Gust Speed Precip Events Conditions
12:19 AM 55.4 °F - 44.6 °F 67% 30.08 in 10.0 mi ESE 3.5 mph - N/A   Mostly Cloudy
12:39 AM 55.4 °F - 44.6 °F 67% 30.07 in 10.0 mi SE 4.6 mph - N/A   Mostly Cloudy
12:59 AM 57.2 °F - 44.6 °F 63% 30.06 in 10.0 mi ESE 4.6 mph - N/A   Overcast
1:19 AM 57.2 °F - 44.6 °F 63% 30.06 in 10.0 mi SE 5.8 mph - N/A   Overcast
1:39 AM 59.0 °F - 44.6 °F 59% 30.05 in 10.0 mi SE 4.6 mph - N/A   Overcast
1:59 AM 59.0 °F - 44.6 °F 59% 30.04 in 10.0 mi SE 4.6 mph - N/A   Overcast
2:19 AM 59.0 °F - 44.6 °F 59% 30.04 in 10.0 mi SSE 4.6 mph - N/A   Overcast
2:39 AM 59.0 °F - 44.6 °F 59% 30.03 in 10.0 mi ESE 4.6 mph - N/A   Overcast
2:59 AM 59.0 °F - 42.8 °F 55% 30.02 in 10.0 mi SSE 4.6 mph - N/A   Overcast
3:19 AM 59.0 °F - 42.8 °F 55% 30.02 in 10.0 mi SE 4.6 mph - N/A   Overcast
3:39 AM 59.0 °F - 42.8 °F 55% 30.01 in 10.0 mi SSE 4.6 mph - N/A   Overcast
3:59 AM 59.0 °F - 42.8 °F 55% 30.00 in 10.0 mi SE 4.6 mph - N/A   Mostly Cloudy
4:19 AM 59.0 °F - 42.8 °F 55% 29.99 in 10.0 mi SSE 4.6 mph - N/A   Scattered Clouds
4:39 AM 59.0 °F - 41.0 °F 51% 29.99 in 10.0 mi Calm Calm - N/A   Clear
4:59 AM 59.0 °F - 41.0 °F 51% 29.99 in 10.0 mi Calm Calm - N/A   Mostly Cloudy
5:19 AM 59.0 °F - 42.8 °F 55% 29.99 in 10.0 mi Calm Calm - N/A   Overcast
5:39 AM 57.2 °F - 42.8 °F 59% 29.99 in 10.0 mi Calm Calm - N/A   Scattered Clouds
5:59 AM 57.2 °F - 42.8 °F 59% 29.99 in 10.0 mi South 3.5 mph - N/A   Clear
6:20 AM 57.2 °F - 42.8 °F 59% 29.99 in 10.0 mi Calm Calm - N/A   Clear
6:40 AM 59.0 °F - 42.8 °F 55% 29.99 in 10.0 mi Calm Calm - N/A   Clear
7:00 AM 57.2 °F - 42.8 °F 59% 29.99 in 10.0 mi SSW 4.6 mph - N/A   Clear
7:20 AM 59.0 °F - 42.8 °F 55% 29.99 in 10.0 mi SSW 4.6 mph - N/A   Clear
7:40 AM 59.0 °F - 42.8 °F 55% 29.98 in 10.0 mi South 4.6 mph - N/A   Clear
8:00 AM 59.0 °F - 42.8 °F 55% 29.98 in 10.0 mi SSW 5.8 mph - N/A   Clear
8:20 AM 60.8 °F - 42.8 °F 52% 29.97 in 10.0 mi SSW 8.1 mph - N/A   Clear
8:40 AM 62.6 °F - 42.8 °F 48% 29.96 in 10.0 mi SSW 8.1 mph - N/A   Clear
9:00 AM 62.6 °F - 44.6 °F 52% 29.96 in 10.0 mi SSW 8.1 mph - N/A   Clear
9:20 AM 62.6 °F - 44.6 °F 52% 29.97 in 10.0 mi SW 9.2 mph - N/A   Clear
9:40 AM 62.6 °F - 44.6 °F 52% 29.98 in 10.0 mi SW 6.9 mph - N/A   Scattered Clouds
10:00 AM 60.8 °F - 46.4 °F 59% 29.95 in 10.0 mi South 4.6 mph - N/A   Overcast
10:20 AM 62.6 °F - 50.0 °F 63% 29.97 in 10.0 mi SW 5.8 mph - N/A   Mostly Cloudy
10:40 AM 64.4 °F - 46.4 °F 52% 29.96 in 10.0 mi SW 6.9 mph - N/A   Scattered Clouds
11:00 AM 64.4 °F - 46.4 °F 52% 29.96 in 10.0 mi WSW 9.2 mph - N/A   Scattered Clouds
11:20 AM 68.0 °F - 50.0 °F 52% 29.94 in 10.0 mi SSW 8.1 mph - N/A   Clear
11:40 AM 68.0 °F - 48.2 °F 49% 29.91 in 10.0 mi South 5.8 mph - N/A   Clear
12:00 PM 69.8 °F - 50.0 °F 49% 29.92 in 10.0 mi South 9.2 mph 17.3 mph N/A   Clear
12:20 PM 71.6 °F - 50.0 °F 46% 29.91 in 10.0 mi SW 13.8 mph 20.7 mph N/A   Clear
12:40 PM 71.6 °F - 51.8 °F 50% 29.90 in 10.0 mi SSW 9.2 mph 17.3 mph N/A   Clear
1:00 PM 73.4 °F - 51.8 °F 47% 29.90 in 10.0 mi SSW 9.2 mph 17.3 mph N/A   Clear
1:20 PM 73.4 °F - 53.6 °F 50% 29.90 in 10.0 mi SSW 10.4 mph 16.1 mph N/A   Clear
1:40 PM 75.2 °F - 53.6 °F 47% 29.90 in 10.0 mi SW 10.4 mph - N/A   Clear
2:00 PM 77.0 °F - 53.6 °F 44% 29.88 in 10.0 mi SSW 8.1 mph - N/A   Clear
2:20 PM 78.8 °F - 53.6 °F 42% 29.86 in 10.0 mi SSW 9.2 mph - N/A   Clear
2:41 PM 78.8 °F - 55.4 °F 44% 29.84 in 10.0 mi SSW 10.4 mph 17.3 mph N/A   Clear
3:01 PM 80.6 °F 80.5 °F 55.4 °F 42% 29.84 in 10.0 mi South 9.2 mph - N/A   Clear
3:21 PM 80.6 °F 80.5 °F 55.4 °F 42% 29.83 in 10.0 mi SSW 9.2 mph - N/A   Clear
3:41 PM 82.4 °F 81.7 °F 55.4 °F 39% 29.83 in 10.0 mi SW 8.1 mph - N/A   Clear
4:01 PM 82.4 °F 81.7 °F 55.4 °F 39% 29.82 in - South 10.4 mph - N/A   Clear
4:21 PM 82.4 °F 82.0 °F 57.2 °F 42% 29.81 in 10.0 mi SSW 8.1 mph 18.4 mph N/A   Clear
4:41 PM 84.2 °F 83.5 °F 57.2 °F 40% 29.79 in 10.0 mi South 6.9 mph - N/A   Clear
5:01 PM 84.2 °F 83.5 °F 57.2 °F 40% 29.78 in 10.0 mi South 11.5 mph 17.3 mph N/A   Clear
5:21 PM 84.2 °F 83.5 °F 57.2 °F 40% 29.77 in 10.0 mi SSW 13.8 mph 17.3 mph N/A   Clear
5:41 PM 84.2 °F 83.5 °F 57.2 °F 40% 29.75 in 10.0 mi SSW 11.5 mph 18.4 mph N/A   Clear
6:01 PM 84.2 °F 83.5 °F 57.2 °F 40% 29.74 in 10.0 mi SSW 9.2 mph 17.3 mph N/A   Clear
6:21 PM 84.2 °F 83.5 °F 57.2 °F 40% 29.74 in 10.0 mi SSW 11.5 mph 17.3 mph N/A   Clear
7:01 PM 82.4 °F 81.7 °F 55.4 °F 39% 29.73 in 10.0 mi SSW 6.9 mph 17.3 mph N/A   Clear
7:21 PM 82.4 °F 81.7 °F 55.4 °F 39% 29.73 in 10.0 mi SSW 8.1 mph - N/A   Clear
7:41 PM 80.6 °F 80.8 °F 57.2 °F 45% 29.74 in 10.0 mi SW 9.2 mph - N/A   Clear
8:01 PM 80.6 °F 80.8 °F 57.2 °F 45% 29.74 in 10.0 mi SW 8.1 mph 17.3 mph N/A   Clear
8:21 PM 78.8 °F - 57.2 °F 47% 29.75 in 10.0 mi SW 9.2 mph - N/A   Clear
8:41 PM 78.8 °F - 57.2 °F 47% 29.75 in 10.0 mi SW 9.2 mph - N/A   Clear
9:01 PM 78.8 °F - 59.0 °F 51% 29.75 in 10.0 mi SW 8.1 mph - N/A   Clear
9:21 PM 78.8 °F - 59.0 °F 51% 29.76 in 10.0 mi SW 10.4 mph - N/A   Clear
10:01 PM 77.0 °F - 59.0 °F 54% 29.78 in 10.0 mi SW 9.2 mph - N/A   Clear
10:21 PM 77.0 °F - 59.0 °F 54% 29.78 in 10.0 mi SW 9.2 mph 16.1 mph N/A   Clear
10:41 PM 77.0 °F - 59.0 °F 54% 29.79 in 10.0 mi WSW 8.1 mph - N/A   Clear
11:01 PM 75.2 °F - 59.0 °F 57% 29.79 in 10.0 mi WSW 9.2 mph - N/A   Clear
11:21 PM 75.2 °F - 59.0 °F 57% 29.79 in 10.0 mi SW 9.2 mph - N/A   Clear
11:42 PM 73.4 °F - 59.0 °F 61% 29.79 in 10.0 mi WSW 6.9 mph - N/A   Clear